Find Starlink 4339

NORAD ID: 53054 Int'l Des: 2022-077 Owner: SPXS Country: US Constellation: starlink operational
LEOCIRCULARRETROGRADESSO

当前视图

正在加载3D地球...

About Starlink 4339

Starlink 4339 (NORAD 53054) is a starlink constellation satellite (v1.5) launched Jul 11, 2022 by SPXS of US. It operates in LEO, CIRCULAR, RETROGRADE, SSO orbit with a mass of 297.00 kg.

关于 Starlink 4339

正在加载描述...

即将过境

Passes for default location (London). Set your location on the main map for personalized predictions.

高度历史

Loading altitude history...

两行轨道根数

1 53054U 22077M 26169.45492589 -.00000857 00000-0 -55426-4 0 9993
2 53054 97.3475 349.5452 0001421 86.5121 273.6269 15.05662502216148
Epoch: Jun 18, 2026 • Age: 19 hours

当前状态

高度 552.6 km
速度 7.59 km/s
星下点 -1.03°S, 7.85°W
发射日期 Jul 11, 2022
运行时间 3.9 years
类型 internet

技术详情

分类 Payload
质量 297.00 kg
干质量 275.00 kg
总质量 297.00 kg
长度 0.20 m
直径 2.80 m
跨度 9.00 m
形状 Box + pan
制造商 SPXS
平台类型 Starlink
阶段状态 In Orbit
所有者/国家 SPXS/US

Most Searched